Location: Dal�� Lhota
(48.7500°N, 14.0167°E)
Time: 23:22:43
(UTC+00:00)

Cosmos 494 Rocket - Pass Details

Date: 24 September 2020
Orbit: 741 x 771 km, 74.1° (Epoch: 25 October)

Event Time Altitude Azimuth Distance (km) Brightness Sun altitude
Rises 17:35:46 0° 340° (NNW) 3,249 7.6 -7.2°
Reaches altitude 10° 17:38:14 10° 346° (NNW) 2,321 6.8 -7.6°
Maximum altitude 17:43:21 49° 61° (ENE) 998 4.3 -8.5°
Drops below altitude 10° 17:48:26 10° 136° (SE) 2,312 6.0 -9.3°
Enters shadow 17:49:49 - 139° (SE) 2,828 6.5 -9.5°
